C/2015 V2 ( Johnson )

Japanese version
Home page
Updated on February 7, 2017

---------------------------------------------------------------------

* Profile

Discovery Date November 3, 2015
Magnitude 17.1 mag
Discoverer J. A. Johnson (Catalina Sky Survey)

* Pictures

* Orbital Elements

Epoch 2017 June 16.0 TT = JDT 2457920.5
T 2017 June 12.33706 TT                                 MPCW
q   1.6369567            (2000.0)            P               Q
z  -0.0010949      Peri.  164.89681     -0.49022306     +0.49433394
 +/-0.0000011      Node    69.84951     -0.85775389     -0.12741301
e   1.0017923      Incl.   49.87663     -0.15472430     -0.85988364
From 1271 observations 2015 Nov. 3-2016 Nov. 9, mean residual 0".4.

* Finding Charts

* Magnitudes Graph

        m1 = 4.7 + 5 log d + 10.0 log r

---------------------------------------------------------------------

The orbital elements are published on M.P.E.C. 2016-V116.
The charts are made with StellaNavigator Ver.8 (AstroArts).
The magnitudes graphs are made with Comet for Windows.

---------------------------------------------------------------------

Copyright(C) Seiichi Yoshida (comet@aerith.net). All rights reserved.